| time (UTC) | temp F | wind direction | speed MPH | gust MPH | rain 1hr in | rain 24hr in | rain mn in | humidity % | barometer mb |
| 20260906105059 | 49 | 0 | 0.0 | 0.0 | 0.00 | 0.23 | 0.00 | 78 | 1012.7 |
| 20260906104559 | 49 | 0 | 0.0 | 0.0 | 0.00 | 0.23 | 0.00 | 78 | 1012.7 |
| 20260906104059 | 49 | 0 | 0.0 | 0.0 | 0.00 | 0.23 | 0.00 | 79 | 1013.2 |
| 20260906103559 | 49 | 0 | 0.0 | 0.0 | 0.00 | 0.23 | 0.00 | 79 | 1012.7 |
| 20260906103059 | 49 | 0 | 0.0 | 0.0 | 0.00 | 0.23 | 0.00 | 79 | 1012.7 |
| 20260906102559 | 49 | 0 | 0.0 | 0.0 | 0.00 | 0.23 | 0.00 | 80 | 1012.7 |
| 20260906102059 | 49 | 0 | 0.0 | 1.0 | 0.00 | 0.23 | 0.00 | 80 | 1012.7 |
| 20260906101600 | 49 | 0 | 0.0 | 1.0 | 0.00 | 0.23 | 0.00 | 80 | 1012.8 |
| 20260906101059 | 49 | 51 | 0.0 | 1.0 | 0.00 | 0.23 | 0.00 | 80 | 1013.4 |
| 20260906100559 | 49 | 0 | 0.0 | 0.0 | 0.00 | 0.23 | 0.00 | 80 | 1012.8 |
| 20260906100059 | 49 | 0 | 0.0 | 0.0 | 0.00 | 0.23 | 0.00 | 80 | 1014.5 |
| 20260906095559 | 49 | 0 | 0.0 | 0.0 | 0.00 | 0.23 | 0.00 | 80 | 1012.7 |
| 20260906094559 | 49 | 0 | 0.0 | 0.0 | 0.00 | 0.23 | 0.00 | 80 | 1012.8 |
| 20260906094059 | 49 | 0 | 0.0 | 0.0 | 0.00 | 0.23 | 0.00 | 80 | 1012.8 |
| 20260906093650 | 49 | 0 | 0.0 | 0.0 | 0.00 | 0.23 | 0.00 | 80 | 1013.0 |
| 20260906093559 | 49 | 0 | 0.0 | 0.0 | 0.00 | 0.23 | 0.00 | 80 | 1013.0 |
| 20260906093059 | 49 | 0 | 0.0 | 0.0 | 0.00 | 0.23 | 0.00 | 80 | 1013.3 |
| 20260906092559 | 49 | 0 | 0.0 | 0.0 | 0.00 | 0.23 | 0.00 | 80 | 1013.0 |
| 20260906092059 | 49 | 0 | 0.0 | 0.0 | 0.00 | 0.23 | 0.00 | 80 | 1013.0 |
| 20260906091559 | 49 | 0 | 0.0 | 0.0 | 0.00 | 0.23 | 0.00 | 81 | 1013.0 |
| 20260906091059 | 49 | 0 | 0.0 | 0.0 | 0.00 | 0.23 | 0.00 | 81 | 1013.0 |
| 20260906090559 | 49 | 0 | 0.0 | 0.0 | 0.00 | 0.23 | 0.00 | 81 | 1012.8 |
| 20260906090059 | 49 | 0 | 0.0 | 0.0 | 0.00 | 0.23 | 0.00 | 81 | 1013.3 |
| 20260906085558 | 49 | 0 | 0.0 | 0.0 | 0.00 | 0.23 | 0.00 | 80 | 1013.0 |
| 20260906085058 | 49 | 0 | 0.0 | 0.0 | 0.00 | 0.23 | 0.00 | 80 | 1013.0 |
| 20260906084558 | 49 | 0 | 0.0 | 0.0 | 0.00 | 0.23 | 0.00 | 80 | 1013.0 |
| 20260906084059 | 49 | 0 | 0.0 | 0.0 | 0.00 | 0.23 | 0.00 | 80 | 1014.1 |
| 20260906083058 | 49 | 0 | 0.0 | 1.0 | 0.00 | 0.23 | 0.00 | 80 | 1013.6 |
| 20260906082558 | 49 | 25 | 0.0 | 1.0 | 0.00 | 0.23 | 0.00 | 81 | 1013.1 |
| 20260906082059 | 49 | 0 | 0.0 | 0.0 | 0.00 | 0.23 | 0.00 | 81 | 1013.1 |
| 20260906081600 | 49 | 0 | 0.0 | 0.0 | 0.00 | 0.23 | 0.00 | 81 | 1014.1 |
| 20260906081058 | 49 | 0 | 0.0 | 0.0 | 0.00 | 0.23 | 0.00 | 81 | 1015.9 |
| 20260906080558 | 49 | 0 | 0.0 | 0.0 | 0.00 | 0.23 | 0.00 | 81 | 1013.4 |
| 20260906080058 | 49 | 23 | 0.0 | 0.0 | 0.00 | 0.23 | 0.00 | 81 | 1013.4 |
| 20260906075558 | 49 | 0 | 0.0 | 0.0 | 0.00 | 0.23 | 0.00 | 81 | 1013.1 |
| 20260906075058 | 49 | 0 | 0.0 | 0.0 | 0.00 | 0.23 | 0.00 | 81 | 1013.1 |
| 20260906074559 | 49 | 0 | 0.0 | 0.0 | 0.00 | 0.23 | 0.00 | 80 | 1013.1 |
| 20260906074058 | 49 | 0 | 0.0 | 0.0 | 0.00 | 0.23 | 0.00 | 81 | 1013.1 |
| 20260906073558 | 49 | 0 | 0.0 | 0.0 | 0.00 | 0.23 | 0.00 | 81 | 1013.4 |
| 20260906073058 | 49 | 0 | 0.0 | 0.0 | 0.00 | 0.23 | 0.00 | 81 | 1013.6 |
| 20260906072558 | 49 | 0 | 0.0 | 0.0 | 0.00 | 0.23 | 0.00 | 80 | 1013.1 |
| 20260906072059 | 48 | 0 | 0.0 | 0.0 | 0.00 | 0.23 | 0.00 | 81 | 1013.1 |
| 20260906071559 | 48 | 0 | 0.0 | 0.0 | 0.00 | 0.23 | 0.00 | 81 | 1013.2 |
| 20260906071058 | 48 | 0 | 0.0 | 0.0 | 0.00 | 0.23 | 0.00 | 81 | 1014.4 |
| 20260906070558 | 48 | 0 | 0.0 | 0.0 | 0.00 | 0.23 | 0.00 | 81 | 1013.2 |
| 20260906070058 | 48 | 0 | 0.0 | 0.0 | 0.00 | 0.23 | 0.00 | 81 | 1013.4 |
| 20260906065558 | 48 | 0 | 0.0 | 0.0 | 0.00 | 0.23 | 0.00 | 81 | 1013.5 |
| 20260906065058 | 48 | 0 | 0.0 | 0.0 | 0.00 | 0.23 | 0.00 | 80 | 1013.2 |
| 20260906064558 | 48 | 0 | 0.0 | 0.0 | 0.00 | 0.23 | 0.00 | 80 | 1013.2 |
| 20260906064058 | 48 | 0 | 0.0 | 0.0 | 0.00 | 0.23 | 0.00 | 81 | 1013.2 |
| 20260906063558 | 48 | 0 | 0.0 | 0.0 | 0.00 | 0.23 | 0.00 | 81 | 1013.1 |
| 20260906063058 | 48 | 0 | 0.0 | 0.0 | 0.00 | 0.23 | 0.00 | 81 | 1013.4 |
| 20260906062558 | 48 | 0 | 0.0 | 0.0 | 0.00 | 0.23 | 0.00 | 80 | 1013.2 |
| 20260906062058 | 48 | 0 | 0.0 | 0.0 | 0.00 | 0.23 | 0.00 | 80 | 1013.6 |
| 20260906061559 | 48 | 0 | 0.0 | 0.0 | 0.00 | 0.23 | 0.00 | 80 | 1013.8 |
| 20260906061058 | 48 | 0 | 0.0 | 0.0 | 0.00 | 0.23 | 0.00 | 80 | 1014.3 |
| 20260906060558 | 48 | 0 | 0.0 | 0.0 | 0.00 | 0.23 | 0.00 | 81 | 1013.3 |
| 20260906060058 | 48 | 23 | 0.0 | 0.0 | 0.00 | 0.23 | 0.00 | 80 | 1013.5 |
| 20260906055558 | 48 | 0 | 0.0 | 0.0 | 0.00 | 0.23 | 0.00 | 81 | 1013.3 |
| 20260906055058 | 48 | 0 | 0.0 | 0.0 | 0.00 | 0.23 | 0.00 | 81 | 1013.4 |
| 20260906054558 | 48 | 0 | 0.0 | 0.0 | 0.00 | 0.23 | 0.00 | 81 | 1013.5 |
| 20260906054058 | 48 | 0 | 0.0 | 0.0 | 0.00 | 0.23 | 0.00 | 81 | 1013.4 |
| 20260906053559 | 48 | 0 | 0.0 | 0.0 | 0.00 | 0.23 | 0.00 | 81 | 1014.1 |
| 20260906053058 | 48 | 0 | 0.0 | 0.0 | 0.00 | 0.23 | 0.00 | 81 | 1013.8 |
| 20260906052558 | 48 | 0 | 0.0 | 0.0 | 0.00 | 0.23 | 0.00 | 81 | 1013.8 |
| 20260906052059 | 48 | 0 | 0.0 | 3.0 | 0.00 | 0.23 | 0.00 | 81 | 1013.4 |
| 20260906051558 | 49 | 23 | 0.0 | 3.0 | 0.00 | 0.23 | 0.00 | 81 | 1013.5 |
| 20260906051059 | 49 | 49 | 0.0 | 3.0 | 0.00 | 0.23 | 0.00 | 81 | 1013.8 |
| 20260906050649 | 49 | 0 | 0.0 | 1.0 | 0.00 | 0.23 | 0.00 | 81 | 1013.4 |
| 20260906050558 | 49 | 0 | 0.0 | 1.0 | 0.00 | 0.23 | 0.00 | 81 | 1013.4 |
| 20260906050059 | 49 | 50 | 0.0 | 1.0 | 0.00 | 0.23 | 0.00 | 80 | 1013.7 |
| 20260906045558 | 49 | 79 | 0.0 | 1.0 | 0.00 | 0.23 | 0.00 | 80 | 1013.8 |
| 20260906045059 | 49 | 54 | 0.0 | 3.0 | 0.00 | 0.23 | 0.00 | 80 | 1013.5 |
| 20260906044558 | 49 | 51 | 0.0 | 3.0 | 0.00 | 0.23 | 0.00 | 80 | 1013.5 |
| 20260906044058 | 49 | 61 | 0.0 | 3.0 | 0.00 | 0.23 | 0.00 | 80 | 1013.5 |
| 20260906043558 | 49 | 0 | 0.0 | 0.0 | 0.00 | 0.23 | 0.00 | 80 | 1014.0 |
| 20260906043058 | 49 | 0 | 0.0 | 0.0 | 0.00 | 0.23 | 0.00 | 79 | 1014.0 |
| 20260906042558 | 50 | 0 | 0.0 | 0.0 | 0.00 | 0.23 | 0.00 | 79 | 1013.5 |
| 20260906042058 | 50 | 0 | 0.0 | 0.0 | 0.00 | 0.23 | 0.00 | 79 | 1013.5 |
| 20260906041558 | 50 | 0 | 0.0 | 0.0 | 0.00 | 0.23 | 0.00 | 80 | 1013.8 |
| 20260906041058 | 50 | 0 | 0.0 | 0.0 | 0.00 | 0.23 | 0.00 | 80 | 1014.8 |
| 20260906040558 | 50 | 0 | 0.0 | 0.0 | 0.00 | 0.23 | 0.00 | 80 | 1013.4 |
| 20260906040059 | 50 | 0 | 0.0 | 0.0 | 0.00 | 0.23 | 0.00 | 80 | 1014.2 |
| 20260906035558 | 50 | 0 | 0.0 | 0.0 | 0.00 | 0.23 | 0.00 | 80 | 1013.4 |
| 20260906035059 | 50 | 0 | 0.0 | 0.0 | 0.00 | 0.23 | 0.00 | 79 | 1014.1 |
| 20260906034558 | 50 | 0 | 0.0 | 0.0 | 0.00 | 0.23 | 0.00 | 79 | 1013.8 |
| 20260906034058 | 50 | 0 | 0.0 | 0.0 | 0.00 | 0.23 | 0.00 | 79 | 1013.5 |
| 20260906033558 | 50 | 0 | 0.0 | 0.0 | 0.00 | 0.23 | 0.00 | 79 | 1013.5 |
| 20260906033058 | 50 | 0 | 0.0 | 0.0 | 0.00 | 0.23 | 0.00 | 78 | 1014.4 |
| 20260906032558 | 50 | 0 | 0.0 | 0.0 | 0.00 | 0.23 | 0.00 | 79 | 1013.6 |
| 20260906032058 | 50 | 0 | 0.0 | 0.0 | 0.00 | 0.23 | 0.00 | 79 | 1014.1 |
| 20260906031558 | 50 | 0 | 0.0 | 0.0 | 0.00 | 0.23 | 0.00 | 79 | 1014.0 |
| 20260906031058 | 50 | 0 | 0.0 | 0.0 | 0.00 | 0.23 | 0.00 | 79 | 1014.6 |
| 20260906030558 | 50 | 0 | 0.0 | 0.0 | 0.00 | 0.23 | 0.00 | 79 | 1013.6 |
| 20260906030059 | 50 | 0 | 0.0 | 0.0 | 0.00 | 0.23 | 0.00 | 78 | 1014.5 |
| 20260906025558 | 50 | 0 | 0.0 | 0.0 | 0.00 | 0.23 | 0.00 | 79 | 1013.6 |
| 20260906025059 | 50 | 0 | 0.0 | 0.0 | 0.00 | 0.23 | 0.00 | 79 | 1013.6 |
| 20260906024558 | 50 | 0 | 0.0 | 0.0 | 0.00 | 0.23 | 0.00 | 79 | 1014.1 |
| 20260906024058 | 50 | 0 | 0.0 | 0.0 | 0.00 | 0.23 | 0.00 | 79 | 1013.5 |
| 20260906023558 | 51 | 0 | 0.0 | 0.0 | 0.00 | 0.23 | 0.00 | 79 | 1013.5 |
| 20260906023058 | 51 | 0 | 0.0 | 0.0 | 0.00 | 0.23 | 0.00 | 79 | 1014.4 |
| 20260906022558 | 51 | 0 | 0.0 | 0.0 | 0.00 | 0.23 | 0.00 | 79 | 1013.5 |
| 20260906022058 | 51 | 0 | 0.0 | 0.0 | 0.00 | 0.23 | 0.00 | 1 | 1013.3 |
| 20260906021558 | 51 | 0 | 0.0 | 0.0 | 0.00 | 0.23 | 0.00 | 1 | 1013.8 |
| 20260906021058 | 51 | 0 | 0.0 | 0.0 | 0.00 | 0.23 | 0.00 | 1 | 1013.4 |
| 20260906020558 | 51 | 0 | 0.0 | 0.0 | 0.00 | 0.23 | 0.00 | 1 | 1013.4 |
| 20260906020058 | 51 | 0 | 0.0 | 0.0 | 0.00 | 0.23 | 0.00 | 1 | 1013.6 |
| 20260906015558 | 52 | 0 | 0.0 | 0.0 | 0.00 | 0.23 | 0.00 | 78 | 1015.2 |
| 20260906015058 | 51 | 0 | 0.0 | 0.0 | 0.00 | 0.23 | 0.00 | 79 | 1013.7 |
| 20260906014558 | 52 | 0 | 0.0 | 0.0 | 0.00 | 0.23 | 0.00 | 79 | 1013.7 |
| 20260906014058 | 52 | 0 | 0.0 | 0.0 | 0.00 | 0.23 | 0.00 | 78 | 1013.6 |
| 20260906013558 | 52 | 0 | 0.0 | 0.0 | 0.00 | 0.23 | 0.00 | 79 | 1014.6 |
| 20260906013058 | 52 | 0 | 0.0 | 0.0 | 0.00 | 0.23 | 0.00 | 79 | 1013.7 |
| 20260906012558 | 52 | 0 | 0.0 | 0.0 | 0.00 | 0.23 | 0.00 | 78 | 1013.7 |
| 20260906012058 | 52 | 0 | 0.0 | 0.0 | 0.00 | 0.23 | 0.00 | 77 | 1015.0 |
| 20260906011558 | 52 | 0 | 0.0 | 0.0 | 0.00 | 0.23 | 0.00 | 78 | 1013.6 |
| 20260906011058 | 52 | 0 | 0.0 | 0.0 | 0.00 | 0.23 | 0.00 | 77 | 1014.4 |
| 20260906010558 | 53 | 0 | 0.0 | 0.0 | 0.00 | 0.23 | 0.00 | 78 | 1013.6 |
| 20260906010058 | 53 | 0 | 0.0 | 0.0 | 0.00 | 0.23 | 0.00 | 78 | 1015.1 |
| 20260906005558 | 53 | 0 | 0.0 | 0.0 | 0.00 | 0.23 | 0.00 | 78 | 1013.6 |
| 20260906005058 | 53 | 0 | 0.0 | 0.0 | 0.00 | 0.23 | 0.00 | 77 | 1014.0 |
| 20260906004558 | 53 | 0 | 0.0 | 0.0 | 0.00 | 0.23 | 0.00 | 77 | 1013.6 |
| 20260906004058 | 53 | 0 | 0.0 | 0.0 | 0.00 | 0.23 | 0.00 | 77 | 1013.6 |
| 20260906003558 | 53 | 0 | 0.0 | 0.0 | 0.00 | 0.23 | 0.00 | 76 | 1013.7 |
| 20260906003058 | 53 | 0 | 0.0 | 0.0 | 0.00 | 0.23 | 0.00 | 77 | 1013.8 |
| 20260906002558 | 53 | 0 | 0.0 | 2.0 | 0.00 | 0.23 | 0.00 | 76 | 1014.4 |
| 20260906002058 | 53 | 0 | 0.0 | 2.0 | 0.00 | 0.23 | 0.00 | 76 | 1014.1 |
| 20260906001600 | 53 | 242 | 0.0 | 2.0 | 0.00 | 0.23 | 0.00 | 77 | 1013.7 |
| 20260906001058 | 53 | 0 | 0.0 | 0.0 | 0.00 | 0.23 | 0.00 | 76 | 1014.5 |
| 20260906000558 | 53 | 0 | 0.0 | 0.0 | 0.00 | 0.23 | 0.00 | 76 | 1014.3 |
| 20260906000059 | 53 | 0 | 0.0 | 0.0 | 0.00 | 0.23 | 0.00 | 76 | 1013.5 |
| 20260905235558 | 53 | 0 | 0.0 | 0.0 | 0.00 | 0.23 | 0.00 | 75 | 1013.5 |
| 20260905235057 | 53 | 0 | 0.0 | 0.0 | 0.00 | 0.23 | 0.00 | 75 | 1013.5 |
| 20260905234557 | 53 | 0 | 0.0 | 0.0 | 0.00 | 0.23 | 0.00 | 75 | 1014.0 |
| 20260905234058 | 53 | 0 | 0.0 | 0.0 | 0.02 | 0.23 | 0.00 | 75 | 1013.4 |
| 20260905233557 | 53 | 0 | 0.0 | 0.0 | 0.02 | 0.23 | 0.23 | 75 | 1014.3 |
| 20260905233057 | 53 | 0 | 0.0 | 0.0 | 0.03 | 0.23 | 0.23 | 75 | 1014.6 |
| 20260905232649 | 54 | 0 | 0.0 | 0.0 | 0.03 | 0.23 | 0.23 | 74 | 1014.1 |
| 20260905232557 | 54 | 0 | 0.0 | 0.0 | 0.03 | 0.23 | 0.23 | 74 | 1014.1 |
| 20260905232057 | 54 | 0 | 0.0 | 0.0 | 0.05 | 0.23 | 0.23 | 74 | 1013.8 |
| 20260905231557 | 54 | 0 | 0.0 | 0.0 | 0.05 | 0.23 | 0.23 | 74 | 1013.5 |
| 20260905231057 | 54 | 0 | 0.0 | 0.0 | 0.08 | 0.23 | 0.23 | 74 | 1014.8 |
| 20260905230557 | 53 | 0 | 0.0 | 0.0 | 0.08 | 0.23 | 0.23 | 74 | 1013.6 |
| 20260905230057 | 53 | 0 | 0.0 | 0.0 | 0.08 | 0.23 | 0.23 | 75 | 1014.2 |
| 20260905225557 | 53 | 0 | 0.0 | 0.0 | 0.08 | 0.23 | 0.23 | 75 | 1014.1 |
| 20260905225057 | 53 | 0 | 0.0 | 0.0 | 0.09 | 0.23 | 0.23 | 77 | 1014.1 |
| 20260905224557 | 52 | 0 | 0.0 | 0.0 | 0.09 | 0.23 | 0.23 | 76 | 1013.7 |
| 20260905224057 | 52 | 0 | 0.0 | 0.0 | 0.07 | 0.23 | 0.23 | 77 | 1013.7 |
| 20260905223557 | 52 | 0 | 0.0 | 0.0 | 0.07 | 0.22 | 0.22 | 77 | 1013.7 |
| 20260905223057 | 52 | 0 | 0.0 | 0.0 | 0.10 | 0.21 | 0.21 | 77 | 1013.8 |
| 20260905222557 | 52 | 0 | 0.0 | 0.0 | 0.10 | 0.20 | 0.20 | 76 | 1014.4 |
| 20260905222057 | 52 | 0 | 0.0 | 0.0 | 0.12 | 0.19 | 0.20 | 76 | 1014.0 |
| 20260905221557 | 52 | 0 | 0.0 | 0.0 | 0.12 | 0.18 | 0.18 | 76 | 1014.0 |
| 20260905221057 | 52 | 0 | 0.0 | 0.0 | 0.11 | 0.16 | 0.16 | 77 | 1015.6 |
| 20260905220557 | 52 | 0 | 0.0 | 0.0 | 0.11 | 0.15 | 0.15 | 77 | 1014.0 |
| 20260905220057 | 52 | 0 | 0.0 | 0.0 | 0.15 | 0.15 | 0.15 | 76 | 1014.0 |
| 20260905215557 | 52 | 0 | 0.0 | 0.0 | 0.15 | 0.15 | 0.15 | 76 | 1015.2 |
| 20260905215057 | 52 | 0 | 0.0 | 0.0 | 0.14 | 0.15 | 0.15 | 76 | 1014.6 |
| 20260905214557 | 52 | 0 | 0.0 | 0.0 | 0.14 | 0.14 | 0.14 | 76 | 1015.3 |
| 20260905214057 | 52 | 0 | 0.0 | 0.0 | 0.14 | 0.14 | 0.14 | 76 | 1014.0 |
| 20260905213557 | 52 | 0 | 0.0 | 0.0 | 0.14 | 0.14 | 0.14 | 77 | 1014.4 |
| 20260905213057 | 52 | 0 | 0.0 | 0.0 | 0.10 | 0.12 | 0.12 | 76 | 1014.0 |
| 20260905212557 | 51 | 0 | 0.0 | 0.0 | 0.10 | 0.11 | 0.11 | 76 | 1014.1 |
| 20260905212058 | 52 | 0 | 0.0 | 0.0 | 0.06 | 0.07 | 0.07 | 75 | 1014.1 |
| 20260905211558 | 52 | 0 | 0.0 | 0.0 | 0.06 | 0.06 | 0.06 | 76 | 1014.7 |
| 20260905211057 | 52 | 0 | 0.0 | 0.0 | 0.04 | 0.05 | 0.05 | 76 | 1014.6 |
| 20260905210557 | 52 | 0 | 0.0 | 0.0 | 0.04 | 0.04 | 0.04 | 75 | 1014.4 |
| 20260905210057 | 52 | 0 | 0.0 | 0.0 | 0.00 | 0.01 | 0.01 | 77 | 1014.1 |
| 20260905205557 | 52 | 0 | 0.0 | 0.0 | 0.00 | 0.00 | 0.00 | 77 | 1014.1 |
| 20260905205057 | 52 | 0 | 0.0 | 0.0 | 0.00 | 0.00 | 0.00 | 78 | 1014.1 |
| 20260905204557 | 52 | 0 | 0.0 | 0.0 | 0.00 | 0.00 | 0.00 | 78 | 1014.1 |
| 20260905204057 | 53 | 0 | 0.0 | 0.0 | 0.00 | 0.00 | 0.00 | 77 | 1014.1 |
| 20260905203557 | 53 | 0 | 0.0 | 0.0 | 0.00 | 0.00 | 0.00 | 77 | 1014.0 |
| 20260905203057 | 53 | 0 | 0.0 | 0.0 | 0.00 | 0.00 | 0.00 | 77 | 1014.4 |
| 20260905202557 | 53 | 0 | 0.0 | 0.0 | 0.00 | 0.00 | 0.00 | 77 | 1014.0 |
| 20260905202057 | 53 | 0 | 0.0 | 0.0 | 0.00 | 0.00 | 0.00 | 76 | 1014.7 |
| 20260905201557 | 54 | 0 | 0.0 | 0.0 | 0.00 | 0.00 | 0.00 | 77 | 1014.3 |
| 20260905201057 | 54 | 0 | 0.0 | 0.0 | 0.00 | 0.00 | 0.00 | 77 | 1015.4 |
| 20260905200557 | 54 | 0 | 0.0 | 0.0 | 0.00 | 0.00 | 0.00 | 76 | 1014.4 |
| 20260905200057 | 54 | 7 | 0.0 | 0.0 | 0.00 | 0.00 | 0.00 | 77 | 1014.0 |
| 20260905195557 | 54 | 0 | 0.0 | 0.0 | 0.00 | 0.00 | 0.00 | 78 | 1014.0 |
| 20260905195057 | 53 | 0 | 0.0 | 0.0 | 0.00 | 0.00 | 0.00 | 78 | 1014.1 |
| 20260905194557 | 53 | 0 | 0.0 | 0.0 | 0.00 | 0.00 | 0.00 | 78 | 1014.0 |
| 20260905194057 | 53 | 0 | 0.0 | 0.0 | 0.00 | 0.00 | 0.00 | 78 | 1014.1 |
| 20260905193557 | 52 | 0 | 0.0 | 1.0 | 0.00 | 0.00 | 0.00 | 78 | 1014.5 |
| 20260905193057 | 52 | 0 | 0.0 | 1.0 | 0.00 | 0.00 | 0.00 | 79 | 1014.7 |
| 20260905192648 | 52 | 116 | 0.0 | 1.0 | 0.00 | 0.00 | 0.00 | 79 | 1014.2 |
| 20260905192557 | 52 | 116 | 0.0 | 1.0 | 0.00 | 0.00 | 0.00 | 79 | 1014.2 |
| 20260905192057 | 52 | 0 | 0.0 | 0.0 | 0.00 | 0.00 | 0.00 | 80 | 1014.7 |
| 20260905191557 | 52 | 0 | 0.0 | 0.0 | 0.00 | 0.00 | 0.00 | 80 | 1014.1 |
| 20260905191057 | 51 | 0 | 0.0 | 0.0 | 0.00 | 0.00 | 0.00 | 80 | 1015.6 |
| 20260905190557 | 51 | 0 | 0.0 | 0.0 | 0.00 | 0.00 | 0.00 | 80 | 1014.1 |
| 20260905190057 | 51 | 0 | 0.0 | 0.0 | 0.00 | 0.00 | 0.00 | 80 | 1015.1 |
| 20260905185557 | 51 | 0 | 0.0 | 0.0 | 0.00 | 0.00 | 0.00 | 80 | 1014.3 |
| 20260905185057 | 51 | 0 | 0.0 | 0.0 | 0.00 | 0.00 | 0.00 | 80 | 1014.4 |
| 20260905184557 | 51 | 0 | 0.0 | 0.0 | 0.00 | 0.00 | 0.00 | 80 | 1014.6 |
| 20260905184057 | 51 | 0 | 0.0 | 0.0 | 0.00 | 0.00 | 0.00 | 80 | 1014.0 |
| 20260905183557 | 51 | 0 | 0.0 | 0.0 | 0.00 | 0.00 | 0.00 | 80 | 1014.1 |
| 20260905183057 | 50 | 0 | 0.0 | 0.0 | 0.00 | 0.00 | 0.00 | 80 | 1015.0 |
| 20260905182557 | 50 | 0 | 0.0 | 0.0 | 0.00 | 0.00 | 0.00 | 80 | 1014.0 |
| 20260905182057 | 50 | 0 | 0.0 | 0.0 | 0.00 | 0.00 | 0.00 | 80 | 1014.0 |
| 20260905181557 | 50 | 0 | 0.0 | 0.0 | 0.00 | 0.00 | 0.00 | 80 | 1014.1 |
| 20260905181057 | 50 | 0 | 0.0 | 0.0 | 0.00 | 0.00 | 0.00 | 80 | 1014.6 |
| 20260905180557 | 50 | 0 | 0.0 | 0.0 | 0.00 | 0.00 | 0.00 | 80 | 1014.0 |
| 20260905180057 | 50 | 0 | 0.0 | 0.0 | 0.00 | 0.00 | 0.00 | 80 | 1015.9 |
| 20260905175557 | 50 | 0 | 0.0 | 0.0 | 0.00 | 0.00 | 0.00 | 80 | 1014.1 |
| 20260905175057 | 50 | 0 | 0.0 | 0.0 | 0.00 | 0.00 | 0.00 | 80 | 1015.1 |
| 20260905174557 | 50 | 0 | 0.0 | 0.0 | 0.00 | 0.00 | 0.00 | 80 | 1014.3 |
| 20260905174057 | 50 | 0 | 0.0 | 0.0 | 0.00 | 0.00 | 0.00 | 80 | 1014.6 |
| 20260905173557 | 50 | 0 | 0.0 | 0.0 | 0.00 | 0.00 | 0.00 | 79 | 1014.2 |
| 20260905173057 | 50 | 0 | 0.0 | 0.0 | 0.00 | 0.00 | 0.00 | 80 | 1014.8 |
| 20260905172557 | 50 | 0 | 0.0 | 0.0 | 0.00 | 0.00 | 0.00 | 80 | 1013.8 |
| 20260905172057 | 50 | 0 | 0.0 | 0.0 | 0.00 | 0.00 | 0.00 | 80 | 1014.3 |
| 20260905171557 | 50 | 0 | 0.0 | 0.0 | 0.00 | 0.00 | 0.00 | 80 | 1014.2 |
| 20260905171057 | 50 | 0 | 0.0 | 0.0 | 0.00 | 0.00 | 0.00 | 80 | 1014.5 |
| 20260905170557 | 50 | 0 | 0.0 | 0.0 | 0.00 | 0.00 | 0.00 | 80 | 1013.6 |
| 20260905170057 | 50 | 0 | 0.0 | 0.0 | 0.00 | 0.00 | 0.00 | 80 | 1015.3 |
| 20260905165557 | 50 | 0 | 0.0 | 0.0 | 0.00 | 0.00 | 0.00 | 79 | 1014.0 |
| 20260905165057 | 50 | 116 | 0.0 | 0.0 | 0.00 | 0.00 | 0.00 | 80 | 1014.6 |
| 20260905164557 | 50 | 0 | 0.0 | 0.0 | 0.00 | 0.00 | 0.00 | 80 | 1014.0 |
| 20260905164057 | 50 | 116 | 0.0 | 0.0 | 0.00 | 0.00 | 0.00 | 80 | 1013.5 |
| 20260905163557 | 50 | 0 | 0.0 | 0.0 | 0.00 | 0.00 | 0.00 | 80 | 1013.7 |
| 20260905163057 | 50 | 0 | 0.0 | 0.0 | 0.00 | 0.00 | 0.00 | 80 | 1013.4 |
| 20260905162557 | 50 | 0 | 0.0 | 0.0 | 0.00 | 0.00 | 0.00 | 81 | 1013.4 |
| 20260905162057 | 50 | 0 | 0.0 | 0.0 | 0.00 | 0.00 | 0.00 | 81 | 1013.4 |
| 20260905161557 | 49 | 0 | 0.0 | 0.0 | 0.00 | 0.00 | 0.00 | 81 | 1013.5 |
| 20260905161057 | 49 | 0 | 0.0 | 0.0 | 0.00 | 0.00 | 0.00 | 81 | 1014.1 |
| 20260905160557 | 49 | 0 | 0.0 | 0.0 | 0.00 | 0.00 | 0.00 | 81 | 1013.5 |
| 20260905160057 | 49 | 0 | 0.0 | 0.0 | 0.00 | 0.00 | 0.00 | 80 | 1014.1 |
| 20260905155557 | 49 | 0 | 0.0 | 0.0 | 0.00 | 0.00 | 0.00 | 81 | 1013.5 |
| 20260905155057 | 49 | 0 | 0.0 | 0.0 | 0.00 | 0.00 | 0.00 | 80 | 1013.5 |
| 20260905154557 | 49 | 0 | 0.0 | 0.0 | 0.00 | 0.00 | 0.00 | 80 | 1013.5 |
| 20260905154057 | 49 | 0 | 0.0 | 1.0 | 0.00 | 0.00 | 0.00 | 80 | 1013.5 |
| 20260905153557 | 49 | 0 | 0.0 | 1.0 | 0.00 | 0.00 | 0.00 | 80 | 1013.6 |
| 20260905153057 | 49 | 116 | 0.0 | 1.0 | 0.00 | 0.00 | 0.00 | 80 | 1013.6 |
| 20260905152557 | 49 | 0 | 0.0 | 0.0 | 0.00 | 0.00 | 0.00 | 80 | 1013.6 |
| 20260905152057 | 49 | 0 | 0.0 | 0.0 | 0.00 | 0.00 | 0.00 | 81 | 1014.2 |
| 20260905151557 | 49 | 116 | 0.0 | 0.0 | 0.00 | 0.00 | 0.00 | 81 | 1014.0 |
| 20260905151057 | 48 | 0 | 0.0 | 0.0 | 0.00 | 0.00 | 0.00 | 81 | 1014.2 |
| 20260905150557 | 48 | 0 | 0.0 | 0.0 | 0.00 | 0.00 | 0.00 | 81 | 1013.5 |
| 20260905150057 | 48 | 0 | 0.0 | 0.0 | 0.00 | 0.00 | 0.00 | 80 | 1014.3 |
| 20260905145557 | 48 | 0 | 0.0 | 0.0 | 0.00 | 0.00 | 0.00 | 81 | 1013.5 |
| 20260905145057 | 48 | 0 | 0.0 | 0.0 | 0.00 | 0.00 | 0.00 | 80 | 1013.5 |
| 20260905144557 | 48 | 0 | 0.0 | 0.0 | 0.00 | 0.00 | 0.00 | 80 | 1013.5 |
| 20260905144056 | 48 | 0 | 0.0 | 0.0 | 0.00 | 0.00 | 0.00 | 81 | 1013.4 |
| 20260905143556 | 48 | 0 | 0.0 | 0.0 | 0.00 | 0.00 | 0.00 | 80 | 1013.4 |
| 20260905143056 | 48 | 0 | 0.0 | 0.0 | 0.00 | 0.00 | 0.00 | 81 | 1013.4 |
| 20260905142556 | 48 | 0 | 0.0 | 0.0 | 0.00 | 0.00 | 0.00 | 81 | 1013.4 |
| 20260905142056 | 48 | 0 | 0.0 | 0.0 | 0.00 | 0.00 | 0.00 | 81 | 1013.4 |
| 20260905141558 | 48 | 0 | 0.0 | 0.0 | 0.00 | 0.00 | 0.00 | 81 | 1013.3 |
| 20260905141056 | 48 | 0 | 0.0 | 0.0 | 0.00 | 0.00 | 0.00 | 81 | 1014.4 |
| 20260905140647 | 48 | 0 | 0.0 | 0.0 | 0.00 | 0.00 | 0.00 | 81 | 1013.3 |
| 20260905140556 | 48 | 0 | 0.0 | 0.0 | 0.00 | 0.00 | 0.00 | 81 | 1013.3 |
| 20260905140056 | 48 | 0 | 0.0 | 0.0 | 0.00 | 0.00 | 0.00 | 81 | 1014.1 |
| 20260905135556 | 48 | 0 | 0.0 | 0.0 | 0.00 | 0.00 | 0.00 | 81 | 1013.2 |
| 20260905135056 | 48 | 0 | 0.0 | 0.0 | 0.00 | 0.00 | 0.00 | 81 | 1013.2 |
| 20260905134557 | 48 | 0 | 0.0 | 0.0 | 0.00 | 0.00 | 0.00 | 81 | 1013.2 |
| 20260905134056 | 48 | 0 | 0.0 | 0.0 | 0.00 | 0.00 | 0.00 | 81 | 1013.6 |
| 20260905133556 | 48 | 0 | 0.0 | 0.0 | 0.00 | 0.00 | 0.00 | 81 | 1013.1 |
| 20260905133056 | 48 | 0 | 0.0 | 0.0 | 0.00 | 0.00 | 0.00 | 81 | 1013.1 |
| 20260905132556 | 48 | 0 | 0.0 | 0.0 | 0.00 | 0.00 | 0.00 | 81 | 1013.1 |
| 20260905132056 | 48 | 0 | 0.0 | 0.0 | 0.00 | 0.00 | 0.00 | 80 | 1013.5 |
| 20260905131556 | 48 | 0 | 0.0 | 0.0 | 0.00 | 0.00 | 0.00 | 81 | 1013.1 |
| 20260905131056 | 48 | 0 | 0.0 | 0.0 | 0.00 | 0.00 | 0.00 | 80 | 1014.3 |
| 20260905130556 | 48 | 0 | 0.0 | 0.0 | 0.00 | 0.00 | 0.00 | 80 | 1013.1 |
| 20260905130056 | 48 | 0 | 0.0 | 0.0 | 0.00 | 0.00 | 0.00 | 80 | 1013.5 |
| 20260905125556 | 48 | 0 | 0.0 | 0.0 | 0.00 | 0.00 | 0.00 | 80 | 1013.1 |
| 20260905125056 | 48 | 0 | 0.0 | 0.0 | 0.00 | 0.00 | 0.00 | 80 | 1013.1 |
| 20260905124556 | 48 | 0 | 0.0 | 0.0 | 0.00 | 0.00 | 0.00 | 80 | 1013.0 |
| 20260905124056 | 48 | 0 | 0.0 | 0.0 | 0.00 | 0.00 | 0.00 | 80 | 1013.4 |
| 20260905123556 | 48 | 0 | 0.0 | 0.0 | 0.00 | 0.00 | 0.00 | 80 | 1013.1 |
| 20260905123056 | 48 | 0 | 0.0 | 0.0 | 0.00 | 0.00 | 0.00 | 80 | 1013.5 |
| 20260905122556 | 48 | 0 | 0.0 | 0.0 | 0.00 | 0.00 | 0.00 | 80 | 1013.0 |
| 20260905122056 | 48 | 0 | 0.0 | 0.0 | 0.00 | 0.00 | 0.00 | 80 | 1013.3 |
| 20260905121556 | 48 | 0 | 0.0 | 0.0 | 0.00 | 0.00 | 0.00 | 80 | 1013.1 |
| 20260905121056 | 48 | 0 | 0.0 | 0.0 | 0.00 | 0.00 | 0.00 | 80 | 1013.0 |
| 20260905120556 | 48 | 0 | 0.0 | 0.0 | 0.00 | 0.00 | 0.00 | 80 | 1013.3 |
| 20260905120056 | 48 | 0 | 0.0 | 0.0 | 0.00 | 0.00 | 0.00 | 80 | 1013.4 |
| 20260905115556 | 48 | 0 | 0.0 | 0.0 | 0.00 | 0.00 | 0.00 | 80 | 1012.8 |
| 20260905115056 | 48 | 0 | 0.0 | 0.0 | 0.00 | 0.00 | 0.00 | 80 | 1012.8 |
| 20260905114556 | 49 | 0 | 0.0 | 0.0 | 0.00 | 0.00 | 0.00 | 80 | 1013.2 |
| 20260905114056 | 49 | 0 | 0.0 | 0.0 | 0.00 | 0.01 | 0.00 | 80 | 1012.8 |
| 20260905113556 | 48 | 0 | 0.0 | 0.0 | 0.00 | 0.01 | 0.00 | 80 | 1012.8 |
| 20260905113056 | 48 | 0 | 0.0 | 0.0 | 0.00 | 0.01 | 0.00 | 80 | 1013.6 |
| 20260905112556 | 48 | 0 | 0.0 | 0.0 | 0.00 | 0.01 | 0.00 | 80 | 1012.7 |
| 20260905112056 | 48 | 0 | 0.0 | 0.0 | 0.00 | 0.01 | 0.00 | 80 | 1012.8 |
| 20260905111556 | 48 | 0 | 0.0 | 0.0 | 0.00 | 0.01 | 0.00 | 80 | 1013.2 |
| 20260905111057 | 48 | 0 | 0.0 | 0.0 | 0.00 | 0.01 | 0.00 | 80 | 1013.4 |
| 20260905110556 | 48 | 0 | 0.0 | 0.0 | 0.00 | 0.01 | 0.00 | 80 | 1012.8 |
| 20260905110056 | 48 | 0 | 0.0 | 0.0 | 0.00 | 0.01 | 0.00 | 80 | 1013.7 |
| 20260905105556 | 49 | 0 | 0.0 | 0.0 | 0.00 | 0.01 | 0.00 | 80 | 1012.8 |